ATLAS 5 CENTAUR DEB, 43976

Orbit data source: Space-Track

ATLAS 5 CENTAUR DEB, 43976 is space debris in HEO originally from a launch on Wed, 17 Sep 2014 UTC launched from the Air Force Eastern Test Range (AFETR). Debris objects in space refer to the collection of defunct objects orbiting the Earth. Examples of debris include non-operational satellites, rocket bodies, and fragments generated from explosions, collisions, or faulty payload assembly.

Loading next visibility...
ATLAS 5 CENTAUR DEB details
Identifier
43976, 2014-055AF
Orbit
HEO
Last TLE update6 days ago
Origin
Flag of USULA (US)
ManufacturerUnknown
MissionSpacecraft
Bus & MotorUnknown
MassUnknown
Launch date (UTC)
2014-09-17 (10 years ago)
Launch vehicleUnknown
Launch site
Air Force Eastern Test Range (AFETR)
Object type
Payload
Rocket body
Debris
Shape & HBRUnknown
Radar Cross SectionSmall (<0.1 m²)

Expand to show TLE details & history

TLE from 6 days ago
0 ATLAS 5 CENTAUR DEB
1 43976U 14055AF  24355.11518784 -.00000052  00000-0  00000-0 0  9996
2 43976  19.6040 202.5067 4843183  60.2641 339.3223  1.83496650 42219
Epoch: 2024-12-20T02:45Z
Definitive object data (Epoch: 2024-12-20T02:45:52.229Z)
Latitude0.00001°
Longitude71.87642°
Altitude10,989.701 km
Speed5.635 km/s
True Right ascension13h 30m 07s
True Declination0° 00' 00"
Sunlit
Object was in daylight at TLE epoch
Visualization TLE readout
Latitude-17.94531°
Longitude-43.28329°
Altitude35,310.817 km
Speed2.232 km/s
Apparent Right ascension05h 23m 37s
Apparent Declination-24° 19' 24"
Sunlit
Object is in daylight
Visualization observer readout
Local Sidereal Time09:46:28
Azimuth236.181° WSW
Elevation1.329°
Doppler factor1
Orbital elements
Apogee altitude35,456.912 km
Perigee altitude8,156.191 km
Semi-major axis28,184.688 km
Eccentricity0.4843183
Inclination19.604°
RAAN202.5067°
Arg. of periapsis60.2641°
True anomaly299.96151°
Mean anomaly339.3223°
Eccentric anomaly322.38563°
Mean motion0.45869 °/min
BSTARUnknown
Orbital period784.84 mins
Loading maneuver chart data...

ATLAS 5 CENTAUR DEB Visibility forecast

Observer location: undefined°, undefined

Span
Click to sort rows by Start time (UTC) header in descending order
Start Az.
Max El. time (UTC)
Max El. Az.
Max El.
End time (UTC)
End Az.
108 mins2024-12-26 15:09:17.088Z228.592° WSW2024-12-26 16:16:17.088Z160.343° S34.883°2024-12-26 16:57:17.088Z93.092° ESE
|